Location: Grandview
(34.8900°N, 117.1058°W)
Time: 03:30:53
(UTC-07:00)

N. Korean satellite - Pass Details

Date: 15 October 2017
Orbit: 459 x 517 km, 97.2° (Epoch: 20 October)

Event Time Altitude Azimuth Distance (km) Brightness Sun altitude
Rises 19:06:17 0° 175° (S) 2,549 10.2 -11.7°
Reaches altitude 10° 19:08:23 10° 179° (S) 1,662 9.3 -12.1°
Maximum altitude 19:11:54 59° 260° (W) 556 7.2 -12.8°
Drops below altitude 10° 19:15:24 10° 341° (NNW) 1,643 9.5 -13.5°
Sets 19:17:27 0° 345° (NNW) 2,516 10.4 -14.0°
